SL-14 DEB, 45293

Orbit data source: Space-Track

SL-14 DEB, 45293 is space debris in LEO originally from a launch on Thu, 15 Aug 1991 UTC launched from the Plesetsk Missile And Space Complex (PKMTR). Debris objects in space refer to the collection of defunct objects orbiting the Earth. Examples of debris include non-operational satellites, rocket bodies, and fragments generated from explosions, collisions, or faulty payload assembly.

Loading next visibility...
Identifier
45293, 1991-056AF
Orbit
LEO
Country
Flag of CISCIS
Related business
Manufacturer
Unknown
Mission
Spacecraft
Bus & Motor
Unknown
Mass
Unknown
Launch date (UTC)
1991-08-15 (34 years ago)
Launch vehicle
Unknown
Launch site
Plesetsk Missile And Space Complex (PKMTR)
Object type
Payload
Rocket body
Debris
Shape & HBR
Unknown
Radar Cross Section
Small (<0.1 m²)

Expand to show TLE details & history
Last TLE update: 21 hours ago

TLE from 21 hours ago
0 SL-14 DEB
1 45293U 91056AF  25242.15246588  .00037925  00000-0  15066-1 0  9993
2 45293  82.5272 191.5056 0131456 278.4280  80.2020 14.23894878277506
Epoch: 2025-08-30T03:39Z
TLE epoch observation values (Epoch: 2025-08-30T03:39:33.052Z)
Latitude
0.00004°
Longitude
158.02703°
Altitude
800.29 km
Speed
7.461 km/s
True Right ascension
12h 46m 01s
True Declination
0° 00' 00"
Sunlit
Object was in daylight at epoch
Visualization orbit readout
Latitude
Unknown
Longitude
Unknown
Altitude
Unknown
Speed
Unknown
Apparent Right ascension
Unknown
Apparent Declination
Unknown
Sunlit
N/A
Visualization observer readout
Local Sidereal Time
15:51:34
Azimuth
Unknown
Elevation
Unknown
Doppler factor
Unknown
Orbital elements
Apogee altitude
903.791 km
Perigee altitude
714.825 km
Semi-major axis
7,187.445 km
Eccentricity
0.01315
Inclination
82.5272°
RAAN
191.5056°
Arg. of periapsis
278.428°
True anomaly
81.6904°
Mean anomaly
80.202°
Eccentric anomaly
80.9458°
Mean motion
3.5619 °/min
Orbital period
101.07 mins
BSTAR
0.015066
Loading maneuver chart data...
Computing Atmospheric mass density...
Loading historical data...
Loading historical data...
Loading historical data...
Loading historical data...
Loading historical data...
Loading historical data...
Loading historical data...

Documentation

Showing up to 5 results
|